Burnet, TX

3:55 AM CDT on July 27, 2017 (GMT -0500)
Burnet Municipal-Craddock

Weather History for KBMQ - December, 2012

Change the Weather History Date:

Saturday, December 29, 2012

  Actual Average Record
Temperature  
Mean Temperature 40 °F -  
Max Temperature 51 °F 57 °F 75 °F (1996)
Min Temperature 30 °F 36 °F 30 °F (1997)
Degree Days  
Heating Degree Days 24    
Moisture  
Dew Point 18 °F    
Average Humidity 44    
Maximum Humidity 64    
Minimum Humidity 26    
Precipitation  
Precipitation 0.00 in - - ()
Sea Level Pressure  
Sea Level Pressure 30.39 in    
Wind  
Wind Speed 8 mph (North)    
Max Wind Speed 15 mph    
Max Gust Speed 22 mph    
Visibility 10 miles    
Events      
Averages and records for this station are not official NWS values.
T = Trace of Precipitation, MM = Missing Value Source: NWS Daily Summary

Daily Weather History Graph

Daily Weather History Graph

Search for Another Location

Airport or City:

Trip Planner

Search our weather history database for the weather conditions in past years. The results will help you decide how hot, cold, wet, or windy it might be!

Date:

Astronomy

Dec. 29, 2012 Rise Set
Actual Time 7:29 AM CST 5:40 PM CST
Civil Twilight 7:03 AM CST 6:07 PM CST
Nautical Twilight 6:33 AM CST 6:37 PM CST
Astronomical Twilight 6:03 AM CST 7:06 PM CST
Moon 7:08 PM CST (12/29) 8:10 AM CST (12/29)
Length of Visible Light 11h 04m
Length of Day
10h 10m
Full, 98% of the Moon is Illuminated
Dec 29
Full
Jan 4
Last Quarter
Jan 11
New
Jan 18
First Quarter
Jan 26
Full

Hourly Weather History & Observations

Time (CST) Temp. Windchill Dew Point Humidity Pressure Visibility Wind Dir Wind Speed Gust Speed Precip Events Conditions
12:53 AM 36.0 °F 27.1 °F 18.0 °F 48% 30.26 in 10.0 mi North 13.8 mph - N/A   Clear
1:53 AM 35.1 °F 26.9 °F 18.0 °F 50% 30.25 in 10.0 mi North 11.5 mph 19.6 mph N/A   Clear
2:53 AM 34.0 °F 24.2 °F 18.0 °F 52% 30.27 in 10.0 mi North 15.0 mph 21.9 mph N/A   Clear
3:53 AM 35.1 °F 26.4 °F 17.1 °F 48% 30.28 in 10.0 mi North 12.7 mph 19.6 mph N/A   Clear
4:53 AM 35.1 °F 31.0 °F 16.0 °F 46% 30.31 in 10.0 mi NW 4.6 mph - N/A   Clear
5:53 AM 32.0 °F 26.4 °F 17.1 °F 54% 30.34 in 10.0 mi NNW 5.8 mph - N/A   Clear
6:53 AM 30.0 °F 26.5 °F 18.0 °F 61% 30.37 in 10.0 mi NNE 3.5 mph - N/A   Clear
7:53 AM 30.0 °F - 19.0 °F 64% 30.41 in 10.0 mi Calm Calm - N/A   Clear
8:53 AM 39.0 °F 34.8 °F 18.0 °F 43% 30.43 in 10.0 mi North 5.8 mph - N/A   Clear
9:53 AM 41.0 °F 35.2 °F 18.0 °F 40% 30.44 in 10.0 mi North 9.2 mph - N/A   Clear
10:53 AM 45.0 °F 40.6 °F 18.0 °F 34% 30.46 in 10.0 mi North 8.1 mph - N/A   Clear
11:53 AM 46.9 °F - 18.0 °F 32% 30.45 in 10.0 mi NNE 9.2 mph - N/A   Clear
12:53 PM 50.0 °F - 19.0 °F 29% 30.42 in 10.0 mi NNE 10.4 mph - N/A   Clear
1:53 PM 50.0 °F - 17.1 °F 27% 30.40 in 10.0 mi NNE 5.8 mph - N/A   Clear
2:53 PM 51.1 °F - 17.1 °F 26% 30.41 in 10.0 mi NNW 5.8 mph - N/A   Clear
3:53 PM 50.0 °F - 17.1 °F 27% 30.39 in 10.0 mi NNE 5.8 mph - N/A   Clear
5:53 PM 46.0 °F - 18.0 °F 33% 30.43 in 10.0 mi Calm Calm - N/A   Clear
6:53 PM 41.0 °F - 19.0 °F 41% 30.44 in 10.0 mi Calm Calm - N/A   Clear
7:53 PM 37.9 °F 34.4 °F 19.9 °F 48% 30.44 in 10.0 mi North 4.6 mph - N/A   Clear
8:53 PM 37.0 °F 34.5 °F 19.0 °F 48% 30.43 in 10.0 mi NE 3.5 mph - N/A   Clear
9:53 PM 34.0 °F - 19.9 °F 56% 30.45 in 10.0 mi Calm Calm - N/A   Clear
10:53 PM 33.1 °F - 19.0 °F 56% 30.45 in 10.0 mi Calm Calm - N/A   Clear
11:53 PM 32.0 °F - 18.0 °F 56% 30.44 in 10.0 mi Calm Calm - N/A   Clear